CW3066 Weather Reports


time (UTC)temp
C
wind
direction
speed
KPH
gust
KPH
rain 1hr
cm
rain 24hr
cm
rain mn
cm
humidity
%
barometer
mb
20260906040033 25 331 0.0 0.0 0.00 1.04 1.04 77 1006.1
20260906034526 25 331 0.0 0.0 0.00 1.04 1.04 75 1006.0
20260906033025 25 331 0.0 0.0 0.00 1.04 1.04 73 1006.1
20260906031555 25 331 0.0 0.0 0.00 1.04 1.04 73 1006.0
20260906030024 25 331 0.0 0.0 0.00 1.04 1.04 73 1005.7
20260906024549 25 331 0.0 0.0 0.00 1.04 1.04 72 1005.6
20260906023025 25 331 0.0 0.0 0.00 1.04 1.04 70 1005.6
20260906021523 26 331 0.0 0.0 0.00 1.04 1.04 68 1005.5
20260906020022 26 331 0.0 0.0 0.00 1.04 1.04 66 1005.6
20260906014522 26 331 0.0 0.0 0.00 1.04 1.04 64 1005.7
20260906013022 26 331 0.0 0.0 0.00 1.04 1.04 63 1005.5
20260906011521 27 331 0.0 0.0 0.00 1.04 1.04 62 1005.3
20260906010039 27 331 0.0 0.0 0.00 1.04 1.04 61 1005.1
20260906004521 27 331 0.0 0.0 0.00 1.04 1.04 60 1005.4
20260906003020 28 331 0.0 0.0 0.00 1.04 1.04 58 1005.1
20260906001524 28 331 0.0 0.0 0.00 1.04 1.04 56 1005.0
20260906000021 30 331 0.0 1.6 0.00 1.04 1.04 54 1005.4
20260905234518 31 338 0.0 3.2 0.00 1.04 1.04 52 1005.4
20260905233017 31 355 0.0 4.8 0.00 1.04 1.04 49 1005.5
20260905231517 31 355 0.0 3.2 0.00 1.04 1.04 47 1005.4
20260905230030 32 355 0.0 3.2 0.00 1.04 1.04 46 1005.4
20260905224519 32 355 0.0 0.0 0.00 1.04 1.04 45 1005.4
20260905223017 33 355 0.0 3.2 0.00 1.04 1.04 44 1005.4
20260905221515 33 355 0.0 3.2 0.00 1.04 1.04 44 1005.4
20260905220016 33 355 0.0 6.4 0.00 1.04 1.04 41 1005.4
20260905214514 33 355 0.0 4.8 0.00 1.04 1.04 41 1005.3
20260905213013 33 355 0.0 3.2 0.00 1.04 1.04 42 1005.2
20260905211529 33 355 0.0 4.8 0.00 1.04 1.04 40 1005.0
20260905210012 34 355 0.0 1.6 0.00 1.04 1.04 40 1005.1
20260905204510 33 351 0.0 4.8 0.00 1.04 1.04 41 1005.2
20260905203009 33 350 0.0 6.4 0.00 1.04 1.04 42 1005.6
20260905201509 33 349 0.0 1.6 0.00 1.04 1.04 41 1005.9
20260905200009 33 350 0.0 4.8 0.00 1.04 1.04 40 1006.0
20260905194505 33 350 0.0 4.8 0.00 1.04 1.04 41 1006.3
20260905193004 33 355 0.0 1.6 0.00 1.04 1.04 44 1006.3
20260905191502 32 351 0.0 3.2 0.00 1.04 1.04 43 1006.5
20260905190003 32 351 0.0 1.6 0.00 1.04 1.04 44 1006.8
20260905184500 32 351 0.0 3.2 0.00 1.04 1.04 46 1006.9
20260905183100 32 351 0.0 1.6 0.00 1.04 1.04 48 1007.0
20260905181559 32 351 0.0 3.2 0.00 1.04 1.04 47 1007.4
20260905180103 31 350 0.0 6.4 0.00 1.04 1.04 47 1007.5
20260905174556 31 350 0.0 8.0 0.00 1.04 1.04 50 1007.5
20260905173102 31 350 0.0 6.4 0.00 1.04 1.04 50 1007.7
20260905171550 30 350 0.0 3.2 0.00 1.04 1.04 53 1007.9
20260905170047 30 348 0.0 1.6 0.00 1.04 1.04 53 1007.6
20260905164545 29 350 0.0 4.8 0.00 1.04 1.04 57 1007.7
20260905163043 28 350 0.0 3.2 0.00 1.04 1.04 59 1007.9
20260905161540 28 350 0.0 4.8 0.00 1.04 1.04 61 1007.9
20260905160039 27 347 0.0 3.2 0.00 1.04 1.04 66 1008.1
20260905154537 27 350 0.0 0.0 0.00 1.04 1.04 68 1008.2
20260905153032 26 350 0.0 0.0 0.00 1.04 1.04 74 1008.4
20260905151531 25 350 0.0 1.6 0.00 1.04 1.04 78 1008.5
20260905150030 24 350 0.0 4.8 0.00 1.04 1.04 82 1008.6
20260905144530 23 328 0.0 0.0 0.00 1.04 1.04 88 1008.6
20260905143033 22 328 0.0 3.2 0.00 1.04 1.04 93 1009.0
20260905141530 22 355 0.0 4.8 0.00 1.04 1.04 95 1008.8
20260905140031 21 355 0.0 3.2 0.00 1.04 1.04 96 1009.0
20260905134534 21 355 0.0 4.8 0.03 1.04 1.04 96 1009.0
20260905133027 21 351 0.0 6.4 0.03 1.04 1.04 96 1009.4
20260905131527 21 355 0.0 4.8 0.03 1.04 1.04 96 1009.3
20260905130026 21 355 0.0 8.0 0.05 1.04 1.04 95 1009.6
20260905124534 21 343 0.0 8.0 0.76 1.02 1.02 94 1009.0
20260905123023 21 345 0.0 11.3 1.02 1.02 1.02 94 1008.9
20260905121522 21 351 0.0 1.6 1.02 1.02 1.02 93 1008.4
20260905120020 21 340 0.0 6.4 0.99 0.99 0.99 91 1008.9
20260905114518 22 277 1.6 9.7 0.23 0.23 0.23 81 1008.7
20260905113019 24 355 1.6 9.7 0.00 0.00 0.00 75 1008.4
20260905111516 24 355 0.0 8.0 0.00 0.00 0.00 81 1008.1
20260905110012 23 319 3.2 11.3 0.00 0.00 0.00 94 1006.8
20260905104511 23 355 0.0 0.0 0.00 0.00 0.00 96 1006.7
20260905103010 23 355 0.0 0.0 0.00 0.00 0.00 95 1006.7
20260905101521 22 355 0.0 0.0 0.00 0.00 0.00 95 1006.8
20260905100008 23 355 0.0 0.0 0.00 0.00 0.00 95 1006.8
20260905094507 23 355 0.0 0.0 0.00 0.00 0.00 95 1006.7
20260905093006 23 355 0.0 0.0 0.00 0.00 0.00 95 1006.7
20260905091509 23 355 0.0 0.0 0.00 0.00 0.00 94 1006.7
20260905090004 23 355 0.0 0.0 0.00 0.00 0.00 94 1006.7
20260905084503 23 355 0.0 0.0 0.00 0.00 0.00 93 1006.5
20260905083002 23 355 0.0 0.0 0.00 0.00 0.00 93 1006.4
20260905081502 23 355 0.0 0.0 0.00 0.00 0.00 93 1006.6
20260905080106 23 355 0.0 0.0 0.00 0.00 0.00 92 1006.6
20260905074559 23 355 0.0 0.0 0.00 0.00 0.00 91 1006.8
20260905073057 23 355 0.0 0.0 0.00 0.00 0.00 91 1006.9
20260905071556 23 355 0.0 0.0 0.00 0.00 0.00 90 1007.1
20260905070106 23 355 0.0 0.0 0.00 0.00 0.00 90 1007.3
20260905064554 24 355 0.0 0.0 0.00 0.00 0.00 89 1007.4
20260905063057 24 355 0.0 0.0 0.00 0.00 0.00 88 1007.7
20260905061551 24 355 0.0 0.0 0.00 0.00 0.00 87 1007.9
20260905060049 24 355 0.0 0.0 0.00 0.00 0.00 86 1007.9
20260905054554 25 355 0.0 0.0 0.00 0.00 0.00 86 1007.9
20260905053046 25 355 0.0 0.0 0.00 0.00 0.00 85 1008.0
20260905051544 25 355 0.0 0.0 0.00 0.00 0.00 85 1008.1
20260905050042 25 355 0.0 0.0 0.00 0.00 0.00 84 1008.1
20260905044541 25 355 0.0 0.0 0.00 0.00 0.00 83 1008.0
20260905043039 25 355 0.0 0.0 0.00 0.00 0.00 81 1008.0
20260905041539 26 355 0.0 0.0 0.00 0.00 0.00 80 1008.2